sat.trackr.live / text

‹ back to catalog

STARLINK-5867

NORAD 55918 · 2023-037E

PAYLOAD ACTIVE UNKNOWN

§ Identity

Operator
Country
US
Launch date
2023-03-17
Launch site
AFWTR
Launch vehicle
Mass (kg)
RCS (m²)

Purposes: comms

External: N2YO · Heavens-Above · Gunter

§ Orbital elements

Epoch: 2026-09-20T03:42:35.804448Z

Period
96.11 min
Inclination
70.0001°
Eccentricity
0.0002524
Mean motion
14.98329660 rev/d
Perigee alt
570.3 km
Apogee alt
573.8 km
Semi-major
6,950.2 km
B*
4.1074e-5
RAAN
174.2429°
Arg perigee
270.9653°
Mean anomaly
89.1217°
Rev number
19,261

§ Raw data

STARLINK-58671 55918U 23037E   26263.15458107  .00000397  00000+0  41074-4 0  99912 55918  70.0001 174.2429 0002524 270.9653  89.1217 14.98329660192617

JSON: /api/v1/satellites/55918 · /tle

For live sub-satellite position, see the globe view (requires WebGL).

§ Visibility from observer

Set your observer location to see the next 7 days of passes ≥ 10°. The values pass through the URL so the page stays shareable.

No JS? Fill the form by hand. The geolocation button needs JavaScript.